Theta_e
323 320 323 321 307 307 299 300 304 305 308 311 319 313 312 311 307 305 332 337 337 341 346 346 345 346 344 343 344 346 347 345 342 339 338 338 340 340 339 342 343 341 338 338 338 340 341 340 340
319 317 322 317 304 299 298 302 302 307 310 311 315 312 311 309 321 328 332 337 340 342 346 345 343 345 344 343 344 345 345 345 341 338 338 338 339 339 337 340 342 340 340 337 337 337 337 338 338
316 315 314 309 306 299 299 302 305 307 310 310 311 314 313 313 324 332 338 339 341 343 346 344 343 345 345 344 344 344 344 346 342 338 338 337 338 336 337 339 341 340 339 339 338 337 337 337 337
317 315 311 304 300 302 301 304 306 309 307 307 311 309 316 323 329 336 339 341 341 343 345 342 344 345 345 344 343 344 345 345 342 339 337 336 337 337 338 340 342 340 339 339 339 339 338 337 337
315 311 304 302 299 301 302 305 308 308 307 307 311 307 313 325 334 339 339 340 341 342 345 343 343 344 344 344 343 344 345 344 342 338 336 336 337 336 335 338 339 339 338 337 336 337 337 336 335
309 308 300 298 299 301 304 306 307 306 306 307 308 308 315 331 335 339 340 340 342 341 343 343 337 340 342 342 343 343 344 343 341 338 336 335 336 336 333 334 339 337 336 336 336 336 335 334 333
306 305 300 300 299 300 303 306 305 305 305 306 312 306 315 328 337 340 341 341 341 342 342 342 342 338 335 338 338 340 342 342 340 338 337 336 336 336 334 334 337 334 334 335 333 333 333 332 331
308 306 298 299 298 300 305 305 306 305 304 309 315 305 308 325 337 338 340 340 340 339 342 341 342 340 339 340 332 334 336 337 337 334 332 330 331 331 331 329 333 332 334 333 333 332 331 330 328
307 302 299 299 299 301 304 303 304 306 306 309 313 310 315 331 334 332 332 334 334 336 340 341 341 340 339 339 334 331 331 331 330 328 325 326 330 331 329 327 330 332 332 331 330 328 327 326 324
306 301 299 302 303 302 303 304 305 304 304 305 308 312 323 332 329 328 329 328 329 332 335 337 339 340 339 336 338 338 337 336 335 333 330 328 329 331 329 325 326 328 327 327 325 322 320 324 325
302 301 301 300 301 303 303 302 305 305 303 307 307 310 324 327 329 329 329 330 330 332 334 336 337 338 339 336 336 336 336 336 335 333 330 328 328 330 330 329 327 325 321 324 322 322 324 324 324
300 300 300 300 302 302 302 304 302 304 306 306 309 313 324 326 327 330 331 332 331 331 332 335 337 338 338 338 336 335 333 334 332 331 329 327 327 328 328 327 327 325 325 321 322 322 321 321 321
298 299 299 300 300 301 301 301 302 303 307 305 305 310 320 324 327 330 332 334 335 333 332 334 336 336 337 337 336 334 332 332 331 330 328 326 326 327 327 327 326 324 321 320 320 320 319 318 318
299 297 298 299 299 299 299 298 299 302 303 302 303 308 314 322 325 328 330 331 332 334 335 336 334 336 336 335 336 334 333 331 331 329 327 326 326 326 326 324 323 321 320 319 319 318 318 317 316
299 297 298 298 298 298 300 297 297 303 301 301 302 305 309 316 324 326 330 330 332 332 335 336 335 335 335 334 335 335 334 330 329 329 328 326 325 326 325 323 320 319 318 316 316 314 311 311 312
296 297 293 295 298 298 298 295 299 299 300 301 303 303 304 309 317 325 329 331 334 334 334 337 335 334 334 334 334 333 335 331 330 328 327 325 325 325 324 322 320 317 315 315 313 312 312 310 310
294 291 292 293 297 297 297 296 298 300 300 300 302 302 302 303 306 316 325 329 332 334 334 335 336 334 334 334 334 333 333 333 332 330 328 326 323 322 321 318 317 313 313 310 310 308 309 310 308
290 290 290 293 294 295 295 296 299 299 299 301 302 303 303 303 304 307 313 324 328 331 334 335 336 336 334 333 333 333 333 332 332 331 329 328 325 323 319 316 312 309 307 306 306 305 303 305 308
294 292 291 291 294 294 295 295 298 300 300 301 302 303 304 304 308 308 307 309 319 325 328 332 334 335 332 331 329 328 327 327 328 330 330 329 326 324 318 317 313 311 309 307 304 304 305 306 307
293 291 290 292 294 294 294 293 297 299 299 301 302 303 303 305 306 306 306 306 306 311 320 325 330 334 332 332 331 331 329 328 330 327 329 330 326 322 319 319 316 313 310 304 306 306 305 305 300
292 291 290 290 291 292 291 292 293 296 296 298 300 302 303 302 303 305 304 305 307 306 309 317 323 329 334 332 331 329 327 325 326 325 326 329 326 323 320 319 319 315 311 308 307 306 303 297 298
289 293 292 290 290 287 291 286 292 295 294 296 298 299 300 300 300 300 302 303 303 305 306 309 316 322 330 333 329 327 326 323 326 326 326 327 325 323 321 320 319 317 312 308 307 306 303 303 294
291 293 292 291 290 289 289 287 291 290 292 296 298 298 298 301 302 303 302 303 305 306 304 304 307 317 324 332 329 327 326 327 329 327 325 324 323 324 322 320 318 314 312 310 309 304 302 301 303
293 292 291 291 290 283 289 288 289 291 293 295 295 297 296 299 301 301 302 304 307 312 311 306 304 310 319 326 327 327 326 325 324 325 324 324 321 321 321 319 318 316 312 311 308 302 300 301 300
293 291 284 282 282 281 285 285 290 294 294 294 296 296 300 300 301 301 302 304 306 311 310 311 307 307 315 322 324 325 325 325 324 322 323 317 314 311 313 315 315 314 312 310 307 303 302 300 299
291 291 285 279 279 283 284 283 290 295 294 295 295 298 300 300 300 300 300 302 304 306 309 312 313 314 315 319 322 324 324 323 322 320 319 317 316 313 312 309 309 309 309 308 306 303 302 300 299
289 287 292 283 278 283 286 288 293 296 294 294 295 297 300 299 300 300 300 301 303 305 306 309 311 312 313 315 315 316 316 316 315 314 315 314 310 306 307 309 306 306 306 305 305 303 300 299 298
292 293 285 287 281 279 284 284 287 290 293 295 296 298 299 299 299 300 300 300 301 303 305 309 308 308 310 311 312 312 312 312 312 310 308 307 306 305 306 307 306 304 303 303 302 300 298 296 297
288 287 288 288 286 283 280 285 292 294 295 296 298 298 299 299 299 299 299 300 301 302 303 305 308 308 306 306 306 306 305 305 305 307 307 309 307 306 306 304 303 302 302 302 300 299 296 295 295
292 290 290 285 282 285 284 285 291 292 295 296 297 297 298 298 298 298 298 299 300 301 302 302 304 304 306 308 308 307 306 306 307 306 305 304 304 301 301 300 299 299 298 298 296 295 295 293 292
Wind_Speed
4 5 3 2 4 3 4 4 0 7 7 3 8 3 2 4 2 5 4 6 13 14 14 13 11 12 12 10 9 9 11 14 14 14 14 14 14 15 15 16 18 15 17 17 16 17 17 18 18
5 3 1 1 4 5 6 5 8 8 6 7 5 4 2 3 3 5 11 8 16 14 13 12 11 12 12 11 9 9 10 14 14 14 14 14 14 14 14 15 15 15 17 16 17 17 17 17 19
2 4 3 3 2 4 4 7 9 6 9 5 5 2 1 3 3 10 6 15 16 14 12 13 11 12 12 11 10 10 7 14 14 14 13 13 13 14 12 13 15 14 16 17 17 18 18 19 20
1 3 3 5 5 2 2 9 7 12 3 2 0 4 2 3 3 3 15 16 15 13 13 14 12 13 12 11 10 9 9 13 15 13 13 13 13 12 12 12 13 15 15 17 17 19 18 17 18
2 2 4 2 3 1 2 6 10 12 7 6 4 4 2 3 2 9 15 15 15 13 12 13 11 13 13 11 9 9 11 14 14 14 13 12 11 12 12 9 14 16 16 16 15 16 16 17 17
3 3 6 6 4 2 2 7 9 6 5 5 5 4 4 4 7 12 15 15 14 13 12 13 11 11 12 11 10 10 11 13 14 13 13 12 11 13 12 7 13 16 16 13 15 14 16 15 15
2 2 4 5 6 4 4 8 8 6 6 5 1 4 4 8 8 11 14 14 13 13 12 11 12 11 10 10 9 10 11 12 12 12 11 10 9 10 11 7 12 14 12 14 13 13 14 15 14
2 2 5 3 7 5 7 7 2 5 5 3 2 4 4 12 12 10 11 13 12 11 12 11 11 11 11 11 8 7 10 10 12 11 10 9 9 9 10 9 11 11 12 14 13 12 13 14 14
2 3 5 7 8 6 9 7 3 1 4 3 4 2 4 14 15 12 10 10 10 9 12 12 11 10 10 10 9 8 9 9 11 10 10 9 8 9 10 9 10 11 12 12 11 12 13 14 13
3 3 5 2 4 5 9 5 9 6 6 5 5 3 4 13 14 15 14 13 12 13 13 12 12 12 11 8 11 10 10 9 8 8 10 6 7 6 7 8 9 11 11 11 9 8 7 4 6
2 4 6 5 3 3 9 5 5 5 6 7 10 11 11 12 14 15 15 15 14 14 12 12 11 11 12 9 8 6 6 6 6 9 8 7 6 7 6 6 6 6 6 5 5 5 4 5 4
7 1 3 6 5 5 8 6 6 8 2 3 4 7 14 16 16 18 17 16 15 15 15 14 13 11 12 8 8 8 7 7 6 8 9 7 5 7 6 5 6 5 3 5 4 4 5 5 5
2 6 2 4 7 6 7 3 1 8 7 5 2 6 14 15 17 15 14 14 15 15 15 15 14 12 11 11 9 8 8 8 8 8 10 8 7 7 7 6 6 5 5 5 5 5 5 5 5
4 5 5 3 3 3 4 4 2 3 1 6 7 9 12 15 17 13 15 16 16 16 17 16 15 13 12 11 12 9 9 9 8 8 9 11 8 7 7 7 6 5 5 4 4 5 5 5 5
7 6 4 3 3 2 1 5 8 4 1 3 6 9 9 13 13 17 16 17 17 16 16 17 16 14 13 15 13 10 9 8 8 9 12 12 10 10 9 7 7 6 5 6 5 5 4 5 4
4 3 6 3 4 2 5 13 4 1 5 9 10 7 9 11 15 16 16 16 16 16 17 17 14 17 15 13 11 9 10 10 9 9 9 12 12 12 11 8 8 8 7 7 7 6 6 5 5
1 5 6 4 2 0 7 5 3 2 3 5 7 8 10 11 14 15 16 16 16 17 17 18 18 18 18 13 10 10 12 10 9 9 9 14 12 11 8 7 6 9 7 7 7 6 7 7 6
7 5 3 7 3 2 5 12 7 6 5 7 8 9 9 11 15 14 15 17 16 16 17 17 16 18 18 11 10 8 8 8 9 10 10 13 12 14 9 7 8 8 6 7 8 8 5 5 7
6 5 6 2 3 4 9 11 16 9 9 12 13 13 13 14 12 10 11 12 14 15 17 19 19 19 14 11 10 9 9 8 8 8 13 14 12 14 11 8 9 10 10 8 9 7 10 8 7
8 7 4 2 1 2 3 12 15 14 9 13 14 14 15 13 11 9 8 9 12 15 18 18 20 20 17 12 11 9 9 8 9 8 11 13 14 13 11 12 11 13 10 8 13 11 7 6 8
6 11 5 1 2 2 6 14 9 6 6 9 14 17 12 12 13 10 9 11 11 14 15 17 20 20 19 18 9 6 4 2 7 9 9 14 14 14 12 12 11 11 11 10 14 13 14 8 7
8 9 6 7 4 6 1 8 5 5 8 9 13 9 9 9 9 7 7 8 9 10 9 14 15 17 16 18 15 13 11 9 8 8 8 9 13 13 13 14 14 13 10 11 11 11 9 8 8
2 7 6 3 5 3 5 7 3 2 9 12 7 5 4 2 4 4 4 4 4 4 6 8 12 14 15 16 18 13 13 10 7 7 9 10 10 12 13 13 12 11 10 12 12 9 11 9 5
13 10 7 3 2 7 8 8 8 6 11 4 2 6 2 1 1 1 2 2 2 2 1 4 8 12 13 16 18 19 15 12 6 8 8 7 6 8 10 11 11 12 10 10 8 9 11 9 6
4 13 4 3 5 6 0 6 12 8 9 4 6 4 1 2 1 2 3 4 4 4 3 1 6 9 12 15 16 17 14 14 11 9 7 5 4 3 6 7 8 7 8 7 7 8 10 12 10
16 14 7 8 6 2 1 12 6 7 4 5 5 4 3 3 2 1 2 4 4 5 5 4 4 5 9 12 13 13 14 5 4 6 4 4 4 3 4 5 5 5 6 8 9 7 8 9 9
9 11 4 8 2 2 6 8 11 12 10 9 9 5 5 3 4 3 1 2 4 4 5 4 4 3 2 3 3 3 4 5 5 5 4 3 3 3 4 4 4 4 3 4 5 5 7 7 8
11 13 5 5 7 7 9 8 13 2 10 7 8 8 6 5 6 5 4 3 3 3 4 5 4 4 3 4 3 3 4 4 4 4 4 4 4 4 3 3 3 3 3 3 4 3 4 6 5
7 8 5 4 5 7 6 9 5 15 9 14 8 5 5 5 5 3 2 2 3 3 3 4 5 5 4 4 3 5 4 4 4 4 5 5 5 4 4 4 3 3 4 4 4 4 4 6 6
11 15 18 9 10 6 3 12 3 4 4 9 9 7 6 5 5 4 3 3 4 4 3 4 4 5 5 5 6 6 6 5 4 4 4 3 4 4 4 4 4 4 4 4 4 4 4 5 5
Wind_Direction
340 336 282 244 230 250 133 136 24 135 151 97 140 202 192 354 332 31 122 128 146 145 136 140 124 121 116 120 106 101 102 99 95 94 92 91 86 82 75 77 80 77 83 82 82 79 79 79 75
5 313 232 114 244 207 140 145 177 131 108 126 141 139 197 91 79 100 140 157 151 146 146 139 127 126 125 123 109 106 102 110 103 95 96 96 92 87 85 85 86 84 84 86 86 85 85 83 81
44 339 221 212 225 205 157 175 144 112 124 156 148 274 18 60 85 144 119 154 147 149 145 130 134 133 127 120 110 114 111 114 102 104 99 98 97 90 96 92 90 86 89 92 91 91 88 89 86
334 170 134 232 185 122 46 152 148 137 153 173 209 150 133 26 135 143 144 153 151 149 148 139 138 135 128 122 114 116 110 113 107 106 101 101 99 96 77 85 96 90 88 86 86 91 96 95 93
49 234 163 178 155 131 149 143 167 158 146 156 187 130 110 111 126 146 151 158 152 153 145 149 140 136 130 127 120 115 107 114 109 112 109 108 103 103 95 78 94 90 90 92 97 97 86 84 83
167 272 182 186 149 139 137 163 163 165 140 136 195 153 116 120 153 156 157 163 157 154 154 146 141 135 133 130 124 122 114 116 117 119 120 118 114 108 100 95 94 94 90 94 91 85 84 84 86
228 201 138 139 139 162 157 167 180 168 158 175 124 177 108 169 154 164 164 162 161 158 160 156 154 145 130 133 132 130 120 120 118 120 117 111 108 107 105 106 95 98 107 102 102 88 84 87 86
198 120 139 154 170 127 142 172 201 181 160 103 215 194 154 164 149 165 167 164 156 174 166 163 157 163 156 150 132 131 130 123 121 112 108 107 101 97 107 118 96 109 99 95 95 100 98 92 89
206 186 163 157 169 138 153 178 153 79 139 181 183 311 74 140 147 155 161 169 166 179 176 171 166 166 161 157 144 131 123 112 115 119 115 146 139 138 152 89 105 105 98 101 100 101 98 96 82
221 197 157 144 147 152 169 196 151 177 161 205 192 156 149 149 163 170 176 178 183 181 185 173 178 173 166 164 163 164 151 161 159 156 161 152 147 144 127 118 100 86 90 94 96 105 113 146 117
190 190 157 161 146 152 167 193 159 175 194 211 215 179 163 172 178 185 188 189 188 187 189 185 182 182 176 170 171 170 173 166 165 163 160 154 148 151 153 140 141 135 131 133 134 140 104 107 118
151 116 170 143 141 144 168 138 186 211 122 49 213 174 165 183 192 194 193 190 192 190 194 193 187 186 189 179 183 176 176 175 172 172 166 163 166 169 162 163 153 157 159 140 136 114 108 109 106
128 143 112 111 130 114 133 163 280 236 202 149 60 182 197 195 205 202 202 200 189 196 196 197 191 188 195 192 189 183 182 186 178 175 177 178 174 174 169 166 168 163 162 161 150 141 136 127 116
116 117 129 137 125 95 184 161 199 240 198 210 195 211 216 211 212 205 205 204 201 198 198 192 197 191 189 199 197 192 189 186 182 183 184 190 180 175 176 171 172 169 173 164 159 155 149 139 137
133 116 142 138 150 126 184 224 221 205 191 232 215 220 225 224 221 219 212 214 201 203 197 199 194 194 190 201 205 200 196 194 187 188 187 188 188 182 180 175 177 171 165 155 149 137 127 141 147
114 141 183 130 181 146 212 244 210 201 213 242 244 233 231 229 226 228 225 219 216 207 203 200 197 200 198 198 199 207 200 197 200 192 186 191 192 187 186 184 183 172 171 175 171 169 169 162 179
45 186 196 168 196 139 231 238 152 176 184 237 256 254 237 240 232 230 225 222 221 218 208 206 201 203 204 202 195 200 211 206 204 200 200 193 190 190 182 184 170 174 177 182 176 178 183 183 187
169 182 207 207 136 204 229 252 233 199 235 249 254 260 251 243 241 231 223 221 224 222 221 215 207 208 207 197 200 197 199 206 211 208 205 202 199 195 184 177 170 173 175 182 187 179 186 195 188
145 173 182 130 111 219 241 263 270 258 257 259 246 243 247 245 249 231 220 221 222 224 224 220 214 209 204 197 193 194 195 192 202 212 215 207 207 199 190 186 181 189 197 190 192 186 194 186 188
167 169 167 110 94 237 293 274 267 264 243 239 253 252 239 243 241 231 218 215 213 222 224 223 220 214 210 204 199 204 196 202 201 201 214 216 209 197 192 198 195 198 195 187 196 200 190 209 191
194 211 181 176 133 89 308 273 240 243 242 246 246 250 263 249 257 253 240 237 227 221 221 223 221 218 211 212 198 196 168 150 194 198 205 209 205 202 200 206 206 202 203 200 203 201 192 185 197
208 203 188 146 186 251 328 285 248 250 265 242 250 238 244 241 249 268 266 257 243 241 232 229 226 223 219 207 206 196 206 198 208 203 202 203 201 201 203 207 206 208 202 206 209 206 205 180 191
185 152 156 109 205 271 183 258 257 337 270 251 227 183 176 228 261 286 303 301 288 277 242 228 225 220 216 211 209 201 209 216 208 195 190 196 198 206 208 208 209 205 206 213 214 216 199 217 223
141 108 79 82 194 249 218 233 248 204 233 279 157 134 175 276 282 353 6 344 30 9 259 211 215 220 214 212 210 214 208 211 193 193 192 196 194 203 210 205 206 210 210 214 203 181 199 208 214
174 160 134 202 211 255 17 217 263 232 234 244 163 188 293 239 187 47 30 29 38 48 38 71 182 200 205 210 211 215 218 214 202 187 194 170 168 190 210 202 206 203 205 196 180 186 197 202 208
186 187 180 194 196 198 124 233 245 252 257 245 259 268 274 208 169 104 31 27 30 39 50 67 121 160 189 200 209 215 221 187 175 170 167 180 193 197 167 182 186 185 178 184 186 194 205 205 214
176 212 166 107 44 235 212 259 268 252 249 237 239 232 230 222 177 158 131 80 60 52 61 48 73 92 144 162 112 95 109 133 149 151 158 171 146 167 178 194 191 177 191 190 185 197 198 198 212
201 139 162 221 193 227 233 261 239 164 222 219 217 216 204 186 182 173 169 118 81 67 68 95 83 86 99 121 125 127 123 117 131 130 130 129 131 145 151 173 192 173 195 217 200 188 184 192 208
162 183 196 194 210 217 250 247 207 222 208 207 186 190 190 190 181 152 105 103 89 90 93 91 114 136 116 100 110 114 105 98 102 120 143 164 150 162 177 184 211 223 221 234 243 216 197 207 213
226 208 192 194 199 236 279 254 127 233 225 183 181 177 168 174 161 164 171 146 129 109 103 106 111 110 108 111 113 105 108 113 121 118 125 138 142 158 176 175 197 205 210 214 226 230 209 220 226